Roda de Ter - l'Esquerda





Hora UTC 21:15
Temperatura 7.2 ºC
Humedad 85.0 %
Presión 1035.9 hPa
Pluja 0.0 mm
Velocidad viento 0.0 km/h
Dirección viento NNE

Datos diarios 2020-02-22



Hora UTC (invierno +1h; verano +2h)
Temperatura (ºC) Humedad (%) Presión (hPa) Velocidad viento (km/h) Precipitación (mm)
Hora UTC Aire Humedad Presión Vel. Dir. Vel. Max Dir. Intent. máx 5 min.
00:05 3.4 90.0 1031.5 1.6 NNE 1.6 0.0
00:10 3.3 89.0 1031.6 1.6 NNE 1.6 0.0
00:15 3.4 90.0 1031.6 3.2 NNE 3.2 0.0
00:20 3.3 90.0 1031.6 1.6 NNE 3.2 0.0
00:25 3.2 90.0 1031.6 1.6 NNE 3.2 0.0
00:30 3.0 89.0 1031.6 3.2 NNE 3.2 0.0
00:35 2.9 90.0 1031.6 0.0 NNE 3.2 0.0
00:40 2.9 90.0 1031.6 1.6 NNE 3.2 0.0
00:45 2.8 90.0 1031.6 1.6 NNE 3.2 0.0
00:50 2.7 90.0 1031.5 1.6 NNE 3.2 0.0
00:55 2.6 90.0 1031.5 1.6 NNE 3.2 0.0
01:00 2.6 90.0 1031.5 3.2 NNE 3.2 0.0
01:05 2.7 91.0 1031.6 0.0 NNE 3.2 0.0
01:10 2.8 91.0 1031.7 0.0 NNE 3.2 0.0
01:15 2.8 91.0 1031.8 0.0 NNE 3.2 0.0
01:20 2.8 91.0 1031.9 0.0 NNE 1.6 0.0
01:25 2.7 91.0 1031.8 1.6 NNE 1.6 0.0
01:30 2.4 91.0 1031.7 1.6 NNE 1.6 0.0
01:35 2.3 90.0 1031.6 0.0 NNE 1.6 0.0
01:40 2.4 91.0 1031.7 1.6 NNE 3.2 0.0
01:40 2.2 90.0 1031.6 1.6 NNE 3.2 0.0
01:50 2.1 91.0 1031.6 0.0 NNE 3.2 0.0
01:55 1.9 90.0 1031.6 1.6 NNE 3.2 0.0
02:00 1.8 91.0 1031.5 1.6 NNE 3.2 0.0
02:05 2.0 91.0 1031.5 1.6 NNE 1.6 0.0
02:10 2.1 91.0 1031.5 0.0 NNE 1.6 0.0
02:15 2.2 91.0 1031.4 0.0 NNE 1.6 0.0
02:20 2.1 91.0 1031.4 1.6 NNE 1.6 0.0
02:25 1.7 91.0 1031.4 1.6 NNE 1.6 0.0
02:30 1.8 91.0 1031.5 1.6 NNE 3.2 0.0
02:35 1.7 91.0 1031.4 1.6 NNE 3.2 0.0
02:40 1.8 91.0 1031.3 1.6 NNE 1.6 0.0
02:40 1.7 91.0 1031.4 1.6 NNE 1.6 0.0
02:50 1.6 91.0 1031.4 3.2 NNE 3.2 0.0
02:55 1.7 91.0 1031.3 0.0 NNE 3.2 0.0
03:00 1.7 91.0 1031.3 0.0 NNE 1.6 0.0
03:05 1.6 91.0 1031.4 1.6 NNE 3.2 0.0
03:10 1.6 91.0 1031.4 0.0 NNE 3.2 0.0
03:15 1.3 91.0 1031.4 0.0 NNE 1.6 0.0
03:20 1.4 91.0 1031.3 0.0 NNE 1.6 0.0
03:25 1.6 92.0 1031.3 1.6 NNE 1.6 0.0
03:30 1.4 91.0 1031.3 0.0 NNE 1.6 0.0
03:35 1.2 91.0 1031.2 0.0 NNE 1.6 0.0
03:40 1.2 91.0 1031.3 1.6 NNE 3.2 0.0
03:45 1.0 91.0 1031.4 1.6 NNE 3.2 0.0
03:50 0.7 91.0 1031.5 0.0 NNE 3.2 0.0
03:55 0.9 92.0 1031.5 0.0 NNE 1.6 0.0
04:00 0.8 91.0 1031.5 0.0 NNE 1.6 0.0
04:05 0.9 92.0 1031.5 0.0 NNE 1.6 0.0
04:10 0.8 92.0 1031.5 0.0 NNE 1.6 0.0
04:15 0.7 92.0 1031.5 1.6 NNE 1.6 0.0
04:20 0.7 92.0 1031.5 1.6 NNE 3.2 0.0
04:25 0.6 92.0 1031.5 0.0 NNE 3.2 0.0
04:30 0.6 92.0 1031.6 0.0 NNE 1.6 0.0
04:35 0.5 92.0 1031.6 1.6 NNE 1.6 0.0
04:40 0.4 92.0 1031.7 0.0 NNE 3.2 0.0
04:45 0.4 92.0 1031.8 0.0 NNE 3.2 0.0
04:50 0.6 92.0 1031.9 1.6 NNE 1.6 0.0
04:55 0.4 92.0 1031.9 1.6 NNE 3.2 0.0
05:00 0.3 92.0 1032.0 0.0 NNE 3.2 0.0
05:05 0.3 92.0 1032.0 1.6 ESE 4.8 0.0
05:10 0.2 92.0 1032.1 1.6 ESE 4.8 0.0
05:15 0.2 92.0 1032.0 1.6 ESE 3.2 0.0
05:20 0.3 92.0 1032.1 1.6 ESE 3.2 0.0
05:25 0.3 92.0 1032.1 1.6 ESE 4.8 0.0
05:30 0.3 92.0 1032.2 0.0 ESE 4.8 0.0
05:35 0.1 92.0 1032.2 0.0 ESE 1.6 0.0
05:40 0.3 92.0 1032.3 1.6 ESE 1.6 0.0
05:45 0.3 92.0 1032.4 0.0 ESE 1.6 0.0
05:50 0.3 92.0 1032.4 0.0 ESE 3.2 0.0
05:55 0.1 92.0 1032.4 0.0 ESE 1.6 0.0
06:00 0.1 92.0 1032.4 1.6 ESE 1.6 0.0
06:05 0.1 92.0 1032.4 3.2 ESE 4.8 0.0
06:10 0.2 92.0 1032.5 0.0 ESE 4.8 0.0
06:15 0.2 92.0 1032.6 1.6 ESE 1.6 0.0
06:20 -0.1 92.0 1032.6 0.0 ESE 3.2 0.0
06:25 -0.1 92.0 1032.7 1.6 ESE 3.2 0.0
06:30 -0.2 92.0 1032.6 0.0 ESE 3.2 0.0
06:35 -0.4 92.0 1032.6 0.0 ESE 3.2 0.0
06:40 -0.3 92.0 1032.6 1.6 ESE 3.2 0.0
06:45 -0.2 92.0 1032.6 0.0 ESE 3.2 0.0
06:50 -0.1 92.0 1032.7 0.0 ESE 1.6 0.0
06:55 -0.2 92.0 1032.7 0.0 ESE 1.6 0.0
07:00 -0.3 92.0 1032.9 0.0 ESE 0.0 0.0
07:05 -0.2 92.0 1033.0 0.0 ESE 1.6 0.0
07:10 0.0 93.0 1033.0 1.6 ESE 1.6 0.0
07:15 -0.1 93.0 1033.0 0.0 ESE 3.2 0.0
07:20 -0.1 93.0 1033.2 0.0 ESE 3.2 0.0
07:25 -0.1 93.0 1033.3 1.6 ESE 3.2 0.0
07:30 0.1 93.0 1033.3 3.2 NE 4.8 0.0
07:35 0.3 93.0 1033.4 0.0 NE 4.8 0.0
07:40 0.4 93.0 1033.5 1.6 NE 3.2 0.0
07:45 0.3 93.0 1033.4 0.0 NE 3.2 0.0
07:50 0.3 93.0 1033.5 1.6 NE 1.6 0.0
07:55 0.4 93.0 1033.6 1.6 NE 1.6 0.0
08:00 0.4 93.0 1033.6 0.0 NE 3.2 0.0
08:05 0.8 93.0 1033.7 0.0 NE 3.2 0.0
08:10 0.8 93.0 1033.7 0.0 NE 1.6 0.0
08:15 1.0 93.0 1033.7 1.6 NE 1.6 0.0
08:20 0.8 93.0 1033.8 0.0 NE 1.6 0.0
08:25 1.1 93.0 1033.8 0.0 NE 1.6 0.0
08:30 1.6 93.0 1033.8 0.0 NE 1.6 0.0
08:35 1.5 93.0 1033.8 0.0 NE 3.2 0.0
08:40 1.8 93.0 1033.8 0.0 NE 3.2 0.0
08:45 2.1 93.0 1034.0 0.0 NE 1.6 0.0
08:50 0.0
08:55 2.3 93.0 1033.9 0.0 N 3.2 0.0
09:00 2.4 93.0 1034.1 1.6 N 3.2 0.0
09:05 2.9 93.0 1034.1 1.6 N 3.2 0.0
09:10 3.2 93.0 1034.2 1.6 WNW 3.2 0.0
09:15 3.4 93.0 1034.3 1.6 WNW 3.2 0.0
09:20 3.8 93.0 1034.2 0.0 WNW 3.2 0.0
09:25 3.9 93.0 1034.1 1.6 W 3.2 0.0
09:30 4.1 93.0 1034.1 1.6 W 3.2 0.0
09:35 4.3 93.0 1034.0 0.0 W 3.2 0.0
09:40 4.7 93.0 1034.2 1.6 W 3.2 0.0
09:45 5.1 94.0 1034.3 3.2 W 3.2 0.0
09:50 0.0
09:55 6.2 93.0 1034.2 1.6 WSW 3.2 0.0
10:00 6.9 92.0 1034.2 4.8 SW 4.8 0.0
10:05 7.1 88.0 1034.2 3.2 WSW 4.8 0.0
10:10 7.8 87.0 1034.1 1.6 WSW 4.8 0.0
10:15 8.1 84.0 1034.2 4.8 W 6.4 0.0
10:20 8.7 83.0 1034.2 3.2 WSW 6.4 0.0
10:25 8.7 81.0 1034.2 4.8 W 6.4 0.0
10:30 8.8 78.0 1034.3 0.0 W 6.4 0.0
10:35 9.4 79.0 1034.4 3.2 W 6.4 0.0
10:40 9.4 76.0 1034.4 1.6 SSW 6.4 0.0
10:45 9.8 76.0 1034.5 3.2 W 6.4 0.0
10:50 0.0
10:55 10.6 77.0 1034.4 1.6 W 4.8 0.0
11:00 11.1 72.0 1034.3 3.2 WSW 4.8 0.0
11:05 11.3 70.0 1034.4 4.8 WSW 4.8 0.0
11:10 11.1 70.0 1034.2 4.8 WSW 6.4 0.0
11:15 11.8 69.0 1034.2 0.0 WSW 6.4 0.0
11:20 11.7 67.0 1034.3 3.2 W 4.8 0.0
11:25 12.3 66.0 1034.2 0.0 WSW 4.8 0.0
11:30 12.8 68.0 1034.2 3.2 WSW 4.8 0.0
11:35 13.1 63.0 1034.1 4.8 WSW 4.8 0.0
11:40 13.2 64.0 1034.1 1.6 WNW 6.4 0.0
11:45 13.1 66.0 1034.0 6.4 S 6.4 0.0
11:50 12.9 60.0 1034.0 3.2 S 6.4 0.0
11:55 13.8 62.0 1033.8 1.6 W 6.4 0.0
12:00 14.2 56.0 1033.7 0.0 SSW 6.4 0.0
12:05 14.3 55.0 1033.7 1.6 W 9.7 0.0
12:10 14.8 54.0 1033.6 1.6 WSW 9.7 0.0
12:15 14.9 56.0 1033.6 1.6 SW 8.0 0.0
12:20 14.9 60.0 1033.5 4.8 SW 8.0 0.0
12:25 15.2 59.0 1033.4 3.2 WSW 6.4 0.0
12:30 15.5 57.0 1033.3 1.6 W 4.8 0.0
12:35 15.7 58.0 1033.3 3.2 WNW 4.8 0.0
12:40 16.1 57.0 1033.3 3.2 WSW 4.8 0.0
12:45 15.9 57.0 1033.2 1.6 SW 4.8 0.0
12:50 0.0
12:55 16.7 56.0 1033.1 3.2 W 6.4 0.0
13:00 16.6 57.0 1033.1 6.4 WSW 8.0 0.0
13:05 16.9 55.0 1033.1 4.8 W 8.0 0.0
13:10 17.3 52.0 1032.8 4.8 W 9.7 0.0
13:15 17.4 55.0 1032.9 3.2 NW 9.7 0.0
13:20 17.9 56.0 1033.0 3.2 W 8.0 0.0
13:25 17.6 56.0 1032.8 3.2 NW 8.0 0.0
13:30 18.2 54.0 1032.6 1.6 W 6.4 0.0
13:35 17.9 55.0 1032.6 0.0 WSW 6.4 0.0
13:40 18.1 50.0 1032.5 3.2 WNW 6.4 0.0
13:45 18.2 51.0 1032.6 3.2 SW 4.8 0.0
13:50 0.0
13:55 18.4 49.0 1032.4 3.2 W 6.4 0.0
14:00 18.3 48.0 1032.3 1.6 NW 6.4 0.0
14:05 18.4 50.0 1032.3 1.6 WSW 4.8 0.0
14:10 18.8 51.0 1032.2 0.0 W 4.8 0.0
14:15 18.7 49.0 1032.3 1.6 W 4.8 0.0
14:20 18.8 47.0 1032.2 3.2 WSW 9.7 0.0
14:25 19.0 46.0 1032.1 3.2 SW 6.4 0.0
14:30 19.1 50.0 1032.1 1.6 WSW 8.0 0.0
14:35 19.2 47.0 1032.1 3.2 W 8.0 0.0
14:40 19.2 49.0 1032.1 6.4 SW 9.7 0.0
14:45 19.3 50.0 1032.1 6.4 SSW 9.7 0.0
14:50 0.0
14:55 19.2 50.0 1032.0 4.8 SW 9.7 0.0
15:00 19.2 50.0 1032.1 1.6 WSW 9.7 0.0
15:05 19.0 55.0 1032.1 4.8 SSW 6.4 0.0
15:10 19.1 51.0 1032.0 4.8 WSW 9.7 0.0
15:15 19.3 54.0 1032.1 3.2 SW 8.0 0.0
15:20 19.4 53.0 1032.2 3.2 WSW 8.0 0.0
15:25 19.2 54.0 1032.3 4.8 W 8.0 0.0
15:30 19.2 54.0 1032.3 6.4 SW 11.3 0.0
15:35 19.1 56.0 1032.2 8.0 SW 11.3 0.0
15:40 18.7 58.0 1032.2 1.6 SW 11.3 0.0
15:45 18.4 58.0 1032.1 4.8 WSW 14.5 0.0
15:50 0.0
15:55 18.4 59.0 1032.1 6.4 SW 14.5 0.0
16:00 17.7 61.0 1032.0 19.3 SW 19.3 0.0
16:05 17.3 62.0 1032.1 6.4 SW 17.7 0.0
16:10 17.4 63.0 1032.3 9.7 SW 17.7 0.0
16:15 17.1 62.0 1032.4 4.8 SW 14.5 0.0
16:20 16.9 63.0 1032.5 9.7 SW 14.5 0.0
16:25 16.6 63.0 1032.5 9.7 SSW 14.5 0.0
16:30 16.3 64.0 1032.5 8.0 SW 14.5 0.0
16:35 16.0 63.0 1032.6 6.4 SSW 14.5 0.0
16:40 15.7 64.0 1032.7 6.4 SSW 14.5 0.0
16:45 15.4 64.0 1032.6 4.8 SW 17.7 0.0
16:50 0.0
16:55 15.4 65.0 1033.0 6.4 SW 17.7 0.0
17:00 15.0 65.0 1033.1 9.7 WSW 12.9 0.0
17:05 14.8 66.0 1033.1 4.8 SW 12.9 0.0
17:10 14.6 66.0 1033.0 4.8 SW 12.9 0.0
17:15 14.3 67.0 1033.3 1.6 SSE 12.9 0.0
17:20 14.1 68.0 1033.3 4.8 SSW 9.7 0.0
17:25 13.9 69.0 1033.4 8.0 S 8.0 0.0
17:30 13.7 69.0 1033.5 6.4 SSW 6.4 0.0
17:35 13.7 69.0 1033.4 6.4 S 11.3 0.0
17:40 13.7 69.0 1033.3 8.0 SSE 11.3 0.0
17:45 13.7 68.0 1033.5 8.0 SSE 11.3 0.0
17:50 0.0
17:55 13.3 69.0 1033.6 1.6 SSE 8.0 0.0
18:00 13.2 70.0 1033.6 0.0 SSE 3.2 0.0
18:05 13.2 69.0 1033.7 0.0 SSE 1.6 0.0
18:10 12.8 70.0 1033.7 3.2 NE 4.8 0.0
18:15 12.3 71.0 1033.7 1.6 NE 4.8 0.0
18:20 12.1 71.0 1033.7 0.0 NE 4.8 0.0
18:25 11.8 71.0 1033.7 0.0 NE 3.2 0.0
18:30 11.4 72.0 1034.0 3.2 NE 3.2 0.0
18:35 11.1 73.0 1034.1 3.2 NE 3.2 0.0
18:40 11.1 73.0 1034.4 0.0 NE 3.2 0.0
18:45 11.7 73.0 1034.5 0.0 NE 4.8 0.0
18:50 0.0
18:55 10.6 73.0 1034.7 0.0 NE 4.8 0.0
19:00 10.2 75.0 1034.8 1.6 NE 3.2 0.0
19:05 10.2 76.0 1035.0 1.6 NE 3.2 0.0
19:10 10.1 77.0 1035.1 0.0 NE 3.2 0.0
19:15 10.1 77.0 1035.3 1.6 NE 3.2 0.0
19:20 10.3 77.0 1035.2 0.0 NE 3.2 0.0
19:25 9.9 78.0 1035.2 0.0 NE 3.2 0.0
19:30 10.1 79.0 1035.2 0.0 NE 1.6 0.0
19:35 9.9 77.0 1035.3 1.6 NE 4.8 0.0
19:40 9.7 80.0 1035.3 1.6 NE 4.8 0.0
19:45 9.8 80.0 1035.3 0.0 NE 3.2 0.0
19:45 9.9 79.0 1035.3 3.2 E 3.2 0.0
19:55 10.3 79.0 1035.3 1.6 E 4.8 0.0
20:00 10.0 78.0 1035.3 0.0 E 3.2 0.0
20:05 9.1 78.0 1035.3 1.6 WSW 3.2 0.0
20:10 8.3 80.0 1035.4 0.0 WSW 3.2 0.0
20:15 8.3 82.0 1035.3 1.6 WSW 3.2 0.0
20:20 8.6 83.0 1035.4 3.2 WSW 3.2 0.0
20:25 8.4 82.0 1035.5 3.2 NE 4.8 0.0
20:30 8.5 83.0 1035.6 1.6 NNE 4.8 0.0
20:35 8.8 82.0 1035.5 1.6 NNE 4.8 0.0
20:40 8.6 81.0 1035.6 0.0 NNE 3.2 0.0
20:45 8.0 82.0 1035.6 0.0 NNE 3.2 0.0
20:45 7.9 83.0 1035.7 0.0 NNE 3.2 0.0
20:55 7.7 83.0 1035.8 3.2 NNE 4.8 0.0
21:00 7.8 85.0 1035.7 0.0 NNE 4.8 0.0
21:05 7.3 84.0 1035.9 3.2 NNE 3.2 0.0
21:10 7.3 86.0 1035.8 0.0 NNE 3.2 0.0
21:15 7.2 85.0 1035.9 0.0 NNE 3.2 0.0
Máxima 19.4 94.0 1035.9 19.3 SW 19.3 0.0
Mínima -0.4 46.0 1031.2
Total 0.0